LEMUR-2-TINYKEV (43883 NORAD) Tracking and Keplerian Element Data

This shows tracking and keplerian element data for the satellite.

Feedback or suggestion? Click here.




ElementValue
Catalog43883
NameLEMUR-2-TINYKEV
Epoch Orbit244
Epoch Day25.83671245
Epoch Year2019
RAAN295.8905
Inclination97.7287
Eccentricity0.0012557
Argument of Perigee138.5339
Mean Anonmoly221.6838
Mean Motion14.96380609
Decay Rate1.11E-05
L11 43883U 18111H 19025.83671245 .00001110 00000-0 10300-3 0 9991
L22 43883 97.7287 295.8905 0012557 138.5339 221.6838 14.96380609 2444

Live tracking and technical data element details for LEMUR-2-TINYKEV (NORAD 43883). LEMUR-2-TINYKEV can be tracked NOW for your location showing map with azimuth and elevation plus other details from your city location.

Track the satellite on the map from your city or location and see movement details for azimuth, elevation, latitude, longitude, range, height, and movement on the map or in text.







IsCatalogInMostPopularTable: catalog: 43883, numindb: 50
Update: records affected: 1



GetName: 43883 LEMUR-2-TINYKEV

Hit Count: updated at: Tue, 16 Jul 2019 21:18:05 GMT